Terug naar catalogus

NAVSTAR 10

USA 5

LostNavigatieMEO
NORAD 15271·PAYLOAD·🇺🇸 United States

Gelanceerd Sep 8, 1984 vanaf Vandenberg Space Force Base

Loading…

Volgende Passages (komende 24 uur)

TLE

VerouderdSource: Space-Track

Epoch: Aug 6, 2026, 00:13 UTC

1 15271U 84097A   26218.00929522 -.00000014  00000-0  00000+0 0  9997
2 15271  62.1001 289.4357 0149187 226.8130 131.8398  1.92619021297279

Volg NAVSTAR 10 in realtime met AllMySat

Download on the App Store